Location: El Bakhil
(32.7726°N, 5.5387°W)
Time: 03:33:40
(UTC+00:00)

AO-73 - Pass Details

Date: 08 August 2021
Orbit: 581 x 661 km, 97.6° (Epoch: 26 September)

Event Time Altitude Azimuth Distance (km) Brightness Sun altitude
Rises 03:51:42 0° 38° (NE) 2,984 ? -21.0°
Reaches altitude 10° 03:55:18 10° 68° (ENE) 2,076 ? -20.4°
Maximum altitude 03:57:09 12° 92° (E) 1,925 ? -20.1°
Drops below altitude 10° 03:58:59 10° 117° (ESE) 2,074 ? -19.8°
Sets 04:02:34 0° 147° (SSE) 2,980 ? -19.2°
